Morrisville, VT

3:32 AM EDT on May 23, 2018 (GMT -0400)
Morrisville Stowe State

Weather History for KMVL - December, 2011

Change the Weather History Date:

Thursday, December 15, 2011

  Actual Average Record
Temperature  
Mean Temperature 41 °F 23 °F  
Max Temperature 48 °F 32 °F 54 °F (2008)
Min Temperature 34 °F 14 °F -16 °F (2017)
Degree Days  
Heating Degree Days 24 42  
Month to date heating degree days 485 590  
Since 1 July heating degree days 1884 2418  
Cooling Degree Days 0 0  
Month to date cooling degree days 0 0  
Year to date cooling degree days 337 265  
Moisture  
Dew Point 39 °F    
Average Humidity 88    
Maximum Humidity 93    
Minimum Humidity 82    
Precipitation  
Precipitation 0.47 in 0.08 in 0.79 in (2003)
Month to date precipitation 0.68 1.41  
Year to date precipitation 34.70 34.77  
Sea Level Pressure  
Sea Level Pressure 29.75 in    
Wind  
Wind Speed 5 mph (SSW)    
Max Wind Speed 15 mph    
Max Gust Speed 25 mph    
Visibility 10 miles    
Events Rain    
T = Trace of Precipitation, MM = Missing Value Source: NWS Daily Summary

Daily Weather History Graph

Daily Weather History Graph

Search for Another Location

Airport or City:

Astronomy

Dec. 15, 2011 Rise Set
Actual Time 7:19 AM EST 4:11 PM EST
Civil Twilight 6:46 AM EST 4:44 PM EST
Nautical Twilight 6:09 AM EST 5:21 PM EST
Astronomical Twilight 5:34 AM EST 5:56 PM EST
Moon 9:45 PM EST (12/15) 10:25 AM EST (12/15)
Length of Visible Light 9h 58m
Length of Day
8h 51m
Waning Gibbous, 75% of the Moon is Illuminated
Dec 15
Waning Gibbous
Dec 17
Last Quarter
Dec 24
New
Jan 1
First Quarter
Jan 9
Full

Hourly Weather History & Observations

Time (EST) Temp. Windchill Dew Point Humidity Pressure Visibility Wind Dir Wind Speed Gust Speed Precip Events Conditions
12:54 AM 36.0 °F 29.0 °F 30.9 °F 82% 30.17 in 10.0 mi South 9.2 mph - 0.00 in Rain Light Rain
1:54 AM 36.0 °F 27.5 °F 30.9 °F 82% 30.12 in 10.0 mi South 12.7 mph - 0.00 in Rain Light Rain
2:54 AM 37.0 °F 32.4 °F 32.0 °F 82% 30.10 in 10.0 mi South 5.8 mph 19.6 mph 0.00 in   Overcast
3:54 AM 35.1 °F - 33.1 °F 92% 30.06 in 10.0 mi Calm Calm - 0.04 in Rain Light Rain
4:54 AM 35.1 °F 32.2 °F 33.1 °F 92% 30.04 in 10.0 mi SSE 3.5 mph - 0.04 in   Overcast
5:54 AM 35.1 °F - 33.1 °F 92% 30.00 in 10.0 mi Calm Calm - 0.02 in Rain Light Rain
7:54 AM 36.0 °F - 34.0 °F 93% 29.96 in 10.0 mi Calm Calm - 0.00 in   Overcast
8:54 AM 37.0 °F - 35.1 °F 93% 29.91 in 10.0 mi Calm Calm - N/A   Overcast
10:54 AM 37.9 °F 35.5 °F 36.0 °F 93% 29.83 in 10.0 mi Variable 3.5 mph - 0.00 in Rain Light Rain
11:44 AM 39.2 °F 37.0 °F 37.4 °F 93% 29.76 in 10.0 mi Variable 3.5 mph - 0.07 in Rain Light Rain
11:52 AM 39.2 °F - 37.4 °F 93% 29.76 in 10.0 mi Calm Calm - 0.08 in Rain Rain
11:54 AM 39.0 °F - 37.0 °F 93% 29.78 in 10.0 mi Calm Calm - 0.08 in Rain Light Rain
12:10 PM 39.2 °F 37.0 °F 37.4 °F 93% 29.73 in 10.0 mi SSE 3.5 mph - 0.01 in Rain Light Rain
12:54 PM 43.0 °F 38.8 °F 39.0 °F 86% 29.72 in 10.0 mi SSW 6.9 mph 18.4 mph 0.01 in Rain Light Rain
1:54 PM 43.0 °F 41.3 °F 39.9 °F 89% 29.70 in 10.0 mi SW 3.5 mph - 0.00 in Rain Light Rain
2:54 PM 45.0 °F 41.2 °F 41.0 °F 86% 29.68 in 10.0 mi SSW 6.9 mph - 0.00 in   Overcast
3:21 PM 46.4 °F 40.4 °F 41.0 °F 81% 29.64 in 10.0 mi SSW 13.8 mph - 0.00 in Rain Light Rain
3:54 PM 46.0 °F 41.0 °F 42.1 °F 86% 29.65 in 10.0 mi SSW 10.4 mph 16.1 mph 0.00 in   Mostly Cloudy
4:54 PM 48.0 °F - 42.1 °F 80% 29.62 in 10.0 mi SSW 12.7 mph 20.7 mph 0.00 in Rain Light Rain
5:41 PM 48.2 °F - 42.8 °F 82% 29.58 in 10.0 mi SSW 8.1 mph 16.1 mph 0.00 in   Mostly Cloudy
5:54 PM 46.9 °F - 43.0 °F 86% 29.60 in 10.0 mi SSW 8.1 mph - 0.03 in Rain Rain
6:05 PM 46.4 °F 44.3 °F 44.6 °F 93% 29.58 in 10.0 mi SW 4.6 mph - 0.02 in Rain Rain
6:34 PM 48.2 °F - 44.6 °F 87% 29.57 in 10.0 mi Variable 3.5 mph - 0.03 in   Overcast
6:54 PM 48.0 °F - 45.0 °F 89% 29.59 in 10.0 mi Variable 6.9 mph - 0.05 in Rain Light Rain
7:33 PM 48.2 °F - 44.6 °F 87% 29.60 in 10.0 mi SSW 4.6 mph - 0.10 in Rain Rain
7:54 PM 46.9 °F - 45.0 °F 93% 29.62 in 10.0 mi SW 4.6 mph - 0.14 in Rain Light Rain
8:54 PM 46.9 °F - 44.1 °F 90% 29.58 in 10.0 mi South 6.9 mph - 0.03 in   Mostly Cloudy
9:54 PM 48.0 °F - 44.1 °F 86% 29.57 in 10.0 mi SSW 5.8 mph - N/A   Overcast
10:54 PM 48.0 °F - 44.1 °F 86% 29.56 in 10.0 mi SSW 3.5 mph - 0.00 in Rain Light Rain
11:54 PM 45.0 °F - 44.1 °F 97% 29.55 in 10.0 mi Calm Calm - 0.00 in Rain Light Rain